Theta_e
340 340 341 346 346 344 343 343 342 342 343 346 347 348 347 347 348 348 347 347 348 348 347 347 346 346 346 346 344 343 343 343 342 341 341 341 342 342 343 342 343 345 348 349 349 349 350 348 349 348 349 348 348 348 348 348 348 348 347 346 347 347 346 346 345 345 345 344 345 345 344 345 345 346 345 345 344 342 340 339 338 336 336 339 342
339 340 340 341 346 343 343 343 344 342 344 346 348 348 347 348 348 348 347 347 347 348 347 346 346 347 346 345 344 342 342 341 341 340 340 341 340 340 341 342 342 343 344 346 347 348 348 348 348 348 347 348 347 347 346 346 346 346 346 346 345 345 345 345 344 343 343 343 344 343 343 345 344 344 345 344 344 342 340 338 338 334 334 339 339
340 340 340 341 345 344 344 344 343 343 345 348 347 347 347 347 347 347 346 347 347 347 347 347 346 347 346 345 344 343 342 342 341 340 340 340 339 340 340 340 340 341 341 343 345 346 346 347 346 345 345 346 346 346 346 346 345 345 345 345 345 345 344 344 343 342 341 341 341 341 341 343 342 343 343 343 342 340 339 338 338 337 334 338 337
340 340 340 341 343 344 343 343 342 344 348 348 348 348 347 347 346 347 347 347 347 347 347 346 345 345 345 345 344 343 340 340 342 342 341 340 339 339 340 340 339 339 340 341 342 343 344 344 344 343 343 345 345 345 345 344 344 344 344 345 344 344 344 342 341 341 340 340 339 338 336 334 338 341 341 340 339 339 337 337 337 337 337 337 337
340 339 339 338 337 342 343 344 342 344 347 348 348 347 347 347 348 347 347 347 347 347 345 344 343 344 344 344 344 344 342 341 342 341 341 340 342 341 341 341 341 340 340 341 340 341 342 341 341 340 342 344 345 344 344 344 344 344 344 344 344 343 342 341 341 340 339 339 338 337 333 333 334 338 339 339 338 336 335 334 334 335 335 334 334
339 339 337 336 335 340 344 343 342 348 348 348 347 347 346 346 347 347 347 346 347 346 345 343 342 344 343 341 342 343 342 340 339 339 337 342 341 341 340 339 341 340 341 341 340 340 340 340 339 340 342 344 344 343 343 343 344 344 344 344 343 342 341 340 340 339 338 337 336 333 332 333 334 335 339 338 337 337 335 333 333 334 334 333 333
339 338 337 335 335 339 342 342 341 345 347 347 347 347 347 347 346 346 346 346 346 345 344 343 342 341 339 340 345 344 343 342 342 341 340 339 340 340 340 341 341 340 340 340 340 340 340 339 338 339 341 343 343 343 344 344 344 344 344 343 343 342 341 339 338 337 336 333 330 330 330 331 332 332 339 340 338 336 335 333 333 334 333 333 332
339 338 337 335 336 340 342 343 343 344 345 345 345 346 347 347 346 346 346 345 345 344 342 341 341 340 340 340 340 340 340 340 340 340 338 338 339 339 339 339 340 340 340 341 341 340 340 339 339 338 342 343 342 343 344 343 343 342 342 342 341 340 339 338 337 336 335 330 328 329 329 329 330 331 337 337 337 336 334 333 331 333 334 332 332
338 338 337 335 336 341 342 341 341 343 344 343 343 345 346 346 346 346 345 344 344 344 342 340 339 339 342 341 339 339 340 340 340 339 339 338 340 341 340 338 338 339 339 339 340 340 339 339 338 339 342 342 342 342 342 343 343 342 341 341 340 339 338 336 335 334 331 329 329 328 328 328 328 329 335 336 335 333 331 332 333 333 332 331 329
338 337 335 335 336 339 342 341 342 342 342 344 343 344 347 347 347 346 345 344 343 343 341 339 339 340 342 341 339 340 340 341 340 341 341 340 340 341 340 340 340 340 340 341 341 340 340 340 338 338 341 343 342 341 342 342 342 341 341 340 339 338 337 335 334 332 329 329 329 329 331 334 327 329 333 335 334 332 332 333 335 333 332 329 328
337 336 335 335 335 340 343 343 344 343 343 342 342 343 344 346 346 345 344 343 343 342 341 341 339 338 338 338 340 342 343 343 343 341 338 337 336 337 338 339 339 340 341 341 341 340 341 340 339 340 340 342 341 340 340 340 341 341 340 340 338 337 336 333 330 326 326 326 326 327 333 335 327 328 335 334 332 331 334 334 333 329 327 327 328
336 335 334 334 341 339 342 342 342 342 342 342 342 343 344 346 346 345 343 343 342 342 340 339 339 338 338 340 342 342 343 343 342 340 339 338 338 337 338 338 338 338 339 338 337 338 339 341 340 340 341 341 340 340 339 338 339 340 340 338 337 336 334 331 326 324 324 324 325 325 325 325 326 331 335 335 333 331 330 330 329 327 331 330 328
336 335 334 333 333 339 341 342 342 343 343 343 344 344 344 346 346 344 343 342 341 341 339 338 338 338 337 337 343 343 343 343 342 340 338 337 337 338 338 339 339 338 338 338 338 338 339 339 339 339 340 340 339 339 338 336 338 339 338 337 336 334 332 329 325 324 323 323 324 324 323 323 326 333 332 333 332 331 331 330 329 329 329 328 326
335 335 335 335 333 341 337 339 340 342 344 344 345 344 343 343 345 343 342 341 341 340 338 338 338 339 338 337 339 341 339 339 340 340 338 337 337 338 338 338 338 338 338 338 338 338 338 338 338 339 339 339 338 337 336 336 335 336 337 337 335 333 331 329 328 324 324 323 324 323 322 325 325 331 330 329 329 329 327 326 326 325 327 327 327
335 335 334 335 334 335 339 337 339 339 342 343 343 343 342 342 344 344 342 341 340 340 338 337 338 338 338 337 336 339 342 342 339 339 338 338 338 338 338 339 338 338 338 338 338 338 338 338 338 338 338 338 337 336 335 335 335 335 335 334 334 332 329 325 325 322 323 324 321 321 320 323 332 331 331 330 330 328 327 327 327 328 327 325 323
336 335 334 335 334 334 335 339 335 336 338 340 341 341 342 342 343 343 342 341 340 339 338 338 339 341 339 338 339 341 342 342 341 338 338 337 337 336 336 337 337 337 337 338 337 337 337 336 336 337 337 336 336 335 335 334 334 334 333 332 331 329 327 325 323 320 320 319 320 321 320 323 331 329 328 328 327 327 327 325 325 326 325 324 324
336 335 335 334 333 332 335 334 333 332 332 334 336 338 340 342 342 342 342 341 340 339 338 338 340 341 343 343 342 341 340 341 342 340 339 338 337 338 338 337 337 337 337 337 338 337 337 336 336 337 337 336 335 335 335 334 334 333 333 331 329 327 325 323 322 319 320 321 321 320 319 321 330 327 328 328 327 327 325 324 324 323 323 325 321
338 336 336 337 335 334 334 333 333 333 331 332 332 337 339 341 341 341 341 341 340 340 340 340 340 341 340 340 340 340 340 341 341 341 341 339 338 337 338 336 336 336 335 335 336 336 336 336 336 336 336 335 335 335 334 334 333 333 332 329 327 327 325 323 320 318 319 323 317 320 319 330 331 326 329 328 326 324 325 324 324 324 325 323 324
337 337 337 337 337 338 335 333 333 334 333 332 329 333 333 337 339 339 340 341 341 339 338 336 337 338 337 335 334 333 333 335 336 337 337 337 335 333 337 336 335 335 335 335 336 336 336 336 335 335 335 334 334 334 333 333 333 332 331 327 323 322 321 320 318 317 318 317 317 317 317 330 326 326 325 326 325 325 325 326 324 322 322 322 322
335 336 337 337 338 338 336 335 334 334 331 329 329 328 331 331 335 336 337 338 337 336 334 332 330 330 330 329 327 325 325 326 327 330 333 336 333 330 333 335 335 335 335 335 335 335 335 335 335 335 334 334 333 332 332 333 332 330 328 325 321 319 319 317 316 316 316 317 318 316 326 334 326 326 326 327 325 325 324 324 322 322 322 320 321
335 336 336 337 338 337 336 335 334 333 331 332 331 331 330 328 329 330 332 334 334 333 331 325 323 322 323 321 322 323 322 322 323 324 324 327 325 327 332 336 335 335 335 335 335 334 335 335 335 334 333 333 329 328 326 330 330 329 325 321 317 317 316 316 316 316 316 317 318 317 329 330 330 325 325 326 325 324 323 323 322 322 322 320 320
333 335 335 336 336 337 336 335 333 332 332 333 333 331 329 328 328 328 327 329 327 325 325 324 327 320 320 321 320 323 322 319 320 328 323 324 326 325 330 335 336 334 335 334 334 334 334 334 334 333 332 330 324 312 314 318 321 324 320 317 315 313 316 316 316 315 316 316 317 320 329 330 327 326 327 325 324 324 323 323 323 322 321 320 320
333 334 335 336 335 335 336 334 333 333 332 333 333 331 330 328 326 326 327 326 328 326 325 325 322 322 320 320 320 319 320 321 319 322 322 322 325 325 329 331 333 332 334 334 334 334 334 334 334 332 331 327 314 312 313 315 313 316 316 315 313 313 315 316 315 315 315 314 315 324 329 330 326 325 326 325 326 324 323 323 322 321 321 321 321
333 335 335 337 335 334 334 334 333 333 333 333 333 331 331 329 327 326 326 327 326 326 324 324 324 323 323 323 321 320 320 319 326 327 327 321 322 323 326 327 329 328 330 330 331 333 333 333 331 331 326 320 314 314 315 315 316 313 315 315 313 314 314 316 315 316 315 317 316 324 328 330 329 326 326 325 325 324 323 323 321 321 321 321 320
333 334 335 336 335 334 334 334 334 334 333 333 332 332 331 329 328 326 325 326 326 326 326 325 324 324 323 324 322 320 321 319 320 320 319 320 319 319 320 321 320 320 323 321 322 321 319 317 316 317 312 315 315 316 315 317 317 314 313 312 312 312 313 314 315 315 316 316 316 322 325 329 330 327 327 326 325 326 324 323 323 321 321 320 320
329 330 332 335 335 335 333 334 334 333 334 334 333 332 331 330 329 328 326 325 326 326 326 326 325 326 324 324 322 322 321 321 318 317 317 319 320 318 319 318 316 317 318 319 317 316 314 313 312 312 312 312 314 313 312 315 313 312 312 311 311 311 311 312 315 316 317 316 316 321 325 329 329 327 328 326 327 327 324 325 324 323 322 321 320
327 329 331 334 335 335 333 334 334 334 334 334 332 331 332 330 330 329 327 326 325 326 326 325 326 325 324 322 321 320 320 320 320 318 318 318 319 317 317 317 319 317 318 318 318 316 314 314 313 314 313 312 312 311 311 311 310 312 311 311 310 312 310 311 313 316 316 315 316 318 324 329 330 328 328 328 327 326 326 325 325 325 323 323 322
326 329 329 332 333 335 335 334 334 334 334 334 332 330 331 330 329 328 328 327 325 325 326 326 326 326 324 323 321 322 321 319 320 318 318 317 318 319 318 316 316 319 318 318 319 314 313 314 313 312 312 312 312 311 311 313 311 311 313 310 310 312 312 310 310 312 316 316 316 316 320 324 326 331 330 329 329 329 328 327 325 325 325 324 323
326 327 328 329 332 334 334 334 334 334 334 334 331 330 331 330 328 328 328 326 326 325 326 327 325 326 325 323 321 320 319 319 318 319 317 319 319 319 317 318 318 318 318 317 318 317 315 314 315 315 311 311 310 311 312 312 310 310 311 312 310 310 312 313 310 309 312 316 316 316 319 323 327 330 331 330 330 331 330 329 328 327 327 326 325
326 328 328 328 330 333 333 334 334 335 335 334 332 330 330 329 329 328 328 325 327 325 325 325 326 326 325 323 323 321 320 319 318 316 317 319 319 319 318 318 318 318 316 318 316 316 315 312 313 313 312 311 311 314 311 313 313 311 309 312 311 312 314 312 312 310 311 314 316 315 316 319 323 329 330 331 331 331 331 330 330 330 329 329 327
325 326 327 328 328 331 332 334 334 333 334 333 332 331 330 329 329 329 328 326 328 325 324 326 325 326 326 324 323 322 321 320 319 319 317 318 319 319 319 318 317 317 317 318 315 316 316 316 315 314 313 313 314 312 311 315 313 313 311 310 313 311 313 314 313 312 309 311 314 315 316 316 319 323 328 331 331 330 330 330 331 331 331 331 330
324 326 327 328 328 330 332 332 334 333 332 333 331 332 331 330 329 329 328 327 327 326 325 325 323 326 325 324 323 322 321 320 320 320 319 318 317 318 318 317 317 316 317 317 315 315 315 315 314 313 312 312 314 313 310 310 313 313 310 312 313 312 311 313 313 314 313 310 311 313 314 315 316 319 322 327 331 331 330 330 331 331 331 331 331
325 327 328 327 328 329 331 332 333 332 333 332 331 332 331 330 328 328 328 328 327 327 326 325 325 325 325 325 324 323 321 321 319 320 319 318 317 317 318 317 318 318 316 316 315 313 312 312 313 311 311 310 310 313 310 308 311 312 310 311 311 312 313 313 313 313 313 313 312 311 312 313 314 315 316 319 325 329 330 330 330 330 331 331 332
325 326 327 326 328 330 332 332 332 332 332 333 331 331 331 331 329 329 328 328 327 326 326 326 324 324 325 325 325 324 322 321 320 317 318 318 317 317 317 317 316 315 315 314 314 313 314 311 313 311 313 310 311 312 309 311 310 307 309 310 309 311 310 312 312 313 313 313 313 313 312 311 312 313 314 316 319 321 327 330 330 330 330 330 331
325 325 326 327 327 330 331 332 330 332 330 332 330 331 330 330 329 329 328 328 327 326 324 325 324 325 326 325 325 325 324 323 321 321 317 315 314 315 315 318 319 316 316 315 315 314 314 316 312 312 311 310 309 310 308 311 310 312 312 311 311 311 310 311 312 312 313 313 313 313 313 313 312 312 313 313 311 314 320 325 329 330 330 330 330
325 326 326 327 327 329 329 331 329 330 331 331 331 331 330 330 330 327 329 327 327 327 326 326 326 324 326 326 327 327 327 326 325 323 322 318 317 316 317 320 321 320 319 317 315 317 316 317 316 315 314 313 311 312 308 310 310 311 311 311 311 310 310 311 311 312 313 312 312 313 313 313 313 313 312 313 313 313 314 318 323 325 328 330 330
326 326 326 326 326 328 328 329 328 330 330 330 330 330 330 329 329 329 329 328 327 327 326 326 327 327 325 327 328 328 328 328 328 327 326 322 320 321 321 321 321 321 320 319 318 319 318 317 315 314 315 315 313 311 309 309 309 310 310 310 311 311 311 312 312 312 313 311 312 312 312 312 313 311 313 313 313 313 312 314 317 319 320 325 329
326 326 327 327 327 327 328 328 328 330 330 330 330 330 330 329 329 329 328 329 329 329 328 326 327 327 327 328 328 328 327 327 327 326 327 326 324 324 325 324 323 322 321 320 318 318 317 316 316 315 315 314 312 310 310 310 309 310 310 310 311 312 312 311 311 308 309 311 312 312 313 313 313 313 313 313 313 313 313 314 314 314 313 316 322
326 326 327 327 327 327 327 326 327 329 329 329 329 329 329 329 329 329 330 331 331 332 331 329 328 327 328 330 329 328 327 329 328 327 326 325 325 324 323 323 324 323 322 320 318 318 317 317 316 317 313 312 312 311 311 310 310 311 311 311 310 311 311 310 307 307 308 310 311 311 311 310 310 310 311 311 312 311 311 311 312 313 313 313 318
326 325 325 327 327 326 326 326 326 329 329 329 328 328 328 327 327 325 328 330 331 329 330 330 328 327 327 327 325 326 325 325 327 327 327 326 325 324 322 320 318 319 321 321 319 318 317 314 314 313 312 310 309 311 311 310 309 308 308 309 308 308 308 307 306 307 307 308 308 308 308 309 307 308 308 310 309 309 309 310 310 312 312 313 315
324 324 325 325 326 326 325 325 326 327 328 328 327 328 327 326 326 328 329 329 330 330 330 330 329 329 327 326 325 325 323 322 322 324 326 324 326 325 324 321 318 315 316 319 319 317 316 316 314 312 312 313 313 312 312 310 309 309 310 309 310 310 309 307 308 308 308 309 308 308 308 306 306 306 307 307 306 307 308 309 310 310 311 311 312
322 323 324 325 325 326 325 326 326 327 328 329 328 328 329 329 328 328 329 328 327 327 328 329 330 330 329 329 326 324 324 323 321 323 324 325 325 324 323 323 321 318 319 318 318 315 316 313 311 311 313 314 312 313 312 310 307 308 309 309 309 310 310 309 309 309 309 308 308 307 307 306 306 306 306 305 305 305 306 307 307 308 309 309 310
323 323 324 324 324 324 325 326 326 327 328 329 328 328 328 326 327 323 327 323 322 325 325 325 326 328 329 328 326 326 325 324 325 325 326 327 327 326 325 324 323 321 319 317 317 317 316 315 313 314 314 311 313 312 311 312 312 308 306 306 306 305 307 305 305 306 307 307 306 306 306 305 305 305 304 303 303 304 304 305 305 306 307 307 308
321 321 322 323 325 324 325 325 325 327 327 327 326 328 327 324 321 319 321 324 321 320 321 320 323 323 324 325 325 326 325 325 326 326 327 328 327 326 325 324 324 322 321 320 319 318 316 313 314 315 316 314 310 311 311 311 312 309 306 306 304 302 303 303 298 303 302 306 306 306 305 305 305 304 302 303 304 304 304 304 304 304 305 306 306
319 321 322 323 325 324 325 325 325 326 327 325 325 325 322 319 317 316 317 317 317 316 316 320 320 320 322 319 322 323 325 325 325 325 324 324 323 323 320 320 319 322 322 321 321 321 320 318 316 315 314 315 314 311 309 309 309 312 312 306 304 300 302 305 306 310 307 303 303 305 305 304 305 305 303 303 303 303 303 303 303 304 304 304 305
319 321 322 324 324 325 324 324 324 325 325 324 324 324 324 324 320 320 319 317 319 317 319 322 319 319 321 315 315 319 322 323 323 323 323 321 322 322 322 321 320 321 320 320 321 321 320 317 318 318 316 315 316 315 310 307 308 309 311 313 312 309 308 307 307 303 306 305 308 304 304 303 303 304 303 303 303 304 303 303 304 304 304 304 304
318 319 319 321 321 322 323 323 324 324 324 323 322 322 323 323 323 323 322 320 319 317 314 314 318 315 315 316 317 316 321 323 321 323 323 323 324 324 324 324 322 320 318 321 321 320 318 319 317 317 317 314 312 312 312 313 307 308 309 310 310 309 309 306 304 306 303 305 306 305 306 304 304 303 304 304 304 303 303 303 303 304 304 304 304
316 312 315 316 318 319 320 321 322 321 322 321 321 323 324 322 322 321 320 320 318 315 310 311 312 312 314 314 313 314 316 318 320 320 321 321 321 321 321 321 321 321 318 319 319 318 317 317 315 316 315 313 313 313 313 312 310 309 307 307 306 306 305 305 306 303 301 299 303 307 307 308 307 307 306 305 304 304 303 303 303 303 303 304 304
306 310 313 314 314 315 316 317 319 319 320 320 320 321 322 322 322 320 317 315 312 309 306 306 310 312 312 309 312 314 315 316 317 318 318 318 317 321 321 321 321 320 316 319 318 318 318 316 315 315 314 314 314 313 313 313 312 312 308 305 304 305 305 305 304 303 301 301 302 304 306 306 307 306 306 305 306 306 305 305 306 304 304 303 303
301 302 302 303 308 310 313 315 318 318 319 319 320 320 320 319 319 317 316 310 308 307 306 307 306 307 308 307 309 311 311 313 312 313 314 316 319 319 319 318 317 317 316 318 318 317 317 316 316 316 315 314 313 313 312 313 312 311 309 308 305 303 302 301 301 300 300 302 300 301 304 304 304 307 310 309 306 305 306 306 306 305 305 305 304
297 298 299 301 306 310 312 314 316 316 316 319 318 319 318 318 319 316 315 312 309 310 308 304 305 305 308 304 305 306 305 306 305 307 307 310 313 315 316 316 316 313 314 315 315 315 315 315 315 314 313 312 311 312 311 310 310 310 310 310 309 308 306 305 307 305 302 300 301 303 305 305 305 305 306 306 308 309 308 308 307 307 306 305 304
Wind_Speed
4 5 3 7 8 9 10 10 10 10 11 12 12 12 11 12 13 14 14 16 16 16 15 16 17 17 17 17 17 16 16 17 17 17 17 17 17 17 16 16 14 15 17 18 18 19 19 19 20 21 20 21 21 21 20 20 20 20 20 19 20 20 20 20 20 18 18 18 18 17 18 18 18 18 18 19 18 16 14 15 14 10 8 12 17
7 4 3 4 8 10 10 11 11 10 12 12 11 11 12 12 14 14 15 16 15 15 16 16 15 17 18 17 17 17 16 16 15 16 17 17 16 16 16 16 15 14 15 16 17 18 19 19 19 19 20 20 20 20 20 19 18 17 17 18 19 19 19 19 18 18 17 17 18 18 18 18 17 18 18 18 17 16 13 15 15 8 6 15 16
6 4 3 4 8 10 10 12 11 11 12 12 11 12 12 13 14 15 16 15 15 16 16 16 15 18 17 17 17 17 16 16 16 17 17 17 17 16 17 16 16 15 14 14 17 17 18 18 18 18 18 18 19 19 18 18 17 17 18 18 19 18 18 18 17 17 16 16 16 16 17 18 17 17 18 18 18 17 14 15 14 13 8 16 14
8 3 4 6 7 8 10 11 11 12 13 12 12 13 14 14 15 15 16 15 16 16 16 15 16 17 17 18 17 16 15 16 18 17 17 16 16 16 16 16 17 16 16 16 15 16 18 17 17 17 17 17 18 17 17 17 17 17 19 18 17 17 17 17 17 16 15 15 14 12 5 5 9 17 18 17 17 17 14 15 15 15 16 14 15
7 4 5 4 4 8 11 10 11 13 13 13 13 14 14 14 15 15 15 16 17 17 16 15 15 17 17 17 16 15 15 16 16 16 16 16 17 17 17 16 16 16 16 16 16 16 16 16 16 17 17 17 16 16 16 17 17 17 17 18 18 17 17 16 16 16 15 14 13 8 5 5 5 14 16 17 17 15 15 15 14 14 15 15 15
7 5 5 4 4 5 9 8 11 16 15 14 14 14 15 15 15 15 16 16 17 17 16 14 14 17 16 15 15 16 16 15 14 13 14 17 17 16 16 16 16 16 16 17 17 16 16 16 16 17 17 17 16 16 17 17 17 17 17 17 17 17 16 16 15 15 14 14 11 5 6 5 5 6 17 16 15 13 15 14 13 13 14 15 15
8 5 5 4 4 5 8 10 12 15 15 14 14 15 14 14 14 15 15 16 16 16 15 14 14 14 14 15 18 15 16 16 16 15 15 16 16 16 16 16 16 16 17 17 17 17 17 16 16 17 17 16 16 17 17 17 17 18 17 17 16 16 15 15 14 13 11 6 5 5 5 5 4 3 14 14 14 14 14 14 13 13 13 14 13
6 5 4 4 4 6 8 9 8 14 14 14 14 14 14 14 14 14 15 15 15 15 15 14 14 15 14 15 15 16 15 15 15 16 15 15 15 15 15 15 16 16 16 17 17 17 16 16 16 16 16 16 17 17 18 18 17 17 17 16 16 16 15 14 13 12 11 6 5 5 5 5 5 4 14 14 13 13 13 12 11 13 15 14 11
6 5 4 4 4 9 8 9 10 12 14 12 12 14 14 14 13 14 14 14 14 14 15 14 13 13 16 16 14 14 15 15 15 15 15 14 15 16 16 14 14 15 15 16 16 16 16 15 15 15 15 16 16 17 18 18 18 16 16 16 15 14 14 12 11 11 7 5 5 5 5 4 4 5 11 14 14 13 12 9 9 12 12 11 11
6 4 4 4 5 8 7 9 11 11 12 13 13 13 14 13 13 15 14 13 13 13 13 13 11 14 15 15 14 14 14 15 15 15 14 14 14 14 15 15 14 14 15 15 15 16 15 14 14 15 15 15 14 15 16 17 17 16 16 16 15 15 13 11 10 7 5 4 4 4 5 6 3 4 9 12 12 12 9 5 6 7 7 11 10
6 5 4 5 5 8 9 9 9 10 11 9 12 12 14 13 13 14 14 13 13 14 13 13 12 14 15 15 15 15 15 15 15 14 13 13 13 14 15 15 15 15 15 15 15 14 14 14 14 14 14 14 13 14 16 16 15 14 14 14 14 14 13 11 7 5 4 5 5 4 5 7 3 3 11 12 12 10 5 5 9 11 8 8 11
6 4 4 4 8 8 8 8 10 11 9 9 12 12 13 13 13 14 13 13 13 13 13 13 13 14 13 15 14 14 14 15 15 14 14 14 13 13 13 13 13 13 13 14 13 13 13 13 13 13 12 12 13 13 15 15 14 13 13 13 13 12 11 9 6 5 5 5 4 4 4 4 3 6 12 11 11 10 9 10 10 8 13 14 13
6 4 4 4 3 7 8 8 8 8 7 9 12 12 11 13 13 13 13 13 13 13 13 12 12 13 12 13 15 14 14 14 14 15 14 13 13 13 13 13 12 13 13 13 13 13 13 13 13 11 11 12 12 13 14 15 15 13 12 13 12 11 9 9 5 5 4 4 4 4 4 4 4 9 10 10 10 10 11 11 10 9 10 10 9
6 5 4 4 4 8 8 8 7 7 7 8 11 11 11 12 13 13 13 12 12 12 12 12 12 14 14 12 13 13 13 13 13 14 14 13 13 13 13 13 13 13 12 13 13 13 13 13 12 11 11 11 11 12 13 14 15 14 12 10 10 10 9 7 6 4 4 4 4 4 4 3 4 9 9 9 9 9 8 8 8 7 10 11 9
8 6 4 4 3 4 8 8 7 7 7 6 8 10 11 12 13 13 13 12 11 11 12 11 11 11 12 12 11 12 13 12 13 13 13 13 12 13 13 12 12 12 12 13 13 12 12 12 12 11 11 10 11 11 12 13 13 13 12 10 8 7 7 5 4 4 4 3 3 3 3 1 7 10 10 9 8 8 9 8 7 10 9 8 7
7 5 4 4 4 4 4 7 8 8 7 6 8 7 8 9 11 12 12 12 11 11 10 10 12 11 11 10 11 13 13 13 12 13 12 11 11 11 11 12 11 11 12 12 12 12 12 12 11 10 9 9 9 10 11 12 11 11 11 11 8 7 7 5 4 3 4 3 2 2 2 1 9 8 8 8 7 8 8 7 6 8 9 7 8
7 6 5 4 4 4 4 4 5 8 7 7 7 7 6 7 8 9 9 10 10 10 10 10 11 10 11 11 11 11 12 12 12 12 11 11 12 11 11 11 11 11 11 11 11 11 11 11 10 9 8 9 9 9 10 10 10 10 9 10 9 7 5 5 4 3 3 2 2 2 2 2 4 6 7 7 7 9 6 4 6 5 4 8 3
7 7 6 5 4 4 4 4 5 4 3 5 7 7 7 7 8 8 7 7 9 9 9 9 9 9 8 9 9 10 11 10 10 10 10 11 10 10 10 10 10 10 10 11 11 11 10 9 8 8 8 8 8 8 9 8 9 9 7 9 7 7 5 5 3 2 2 2 2 1 1 4 6 5 11 9 8 5 6 5 6 5 6 5 7
8 7 6 7 6 5 4 4 4 5 4 3 4 5 7 7 8 7 7 7 8 9 9 8 9 8 8 9 10 10 9 10 10 11 10 10 10 8 8 8 9 10 10 10 10 10 9 8 7 7 7 6 6 6 6 7 7 7 7 8 7 7 7 4 3 2 2 1 1 1 2 4 2 5 5 6 4 6 5 8 5 4 3 3 3
7 7 8 6 6 6 4 4 4 5 3 3 4 4 6 8 8 7 7 8 9 9 9 9 9 9 8 9 9 8 7 7 9 7 10 10 9 7 7 7 8 9 9 9 9 8 7 7 7 5 5 4 4 4 3 4 5 6 7 8 7 6 4 3 3 2 2 1 0 0 3 3 4 5 4 5 4 6 4 4 3 4 4 2 2
6 7 7 7 7 8 7 5 5 5 4 4 4 4 4 7 6 7 8 8 8 9 9 9 8 8 7 7 7 5 4 4 5 4 7 5 7 8 7 7 8 8 8 8 8 7 7 6 5 4 3 3 4 4 4 4 4 5 6 6 6 3 2 3 2 2 1 1 0 1 4 3 4 2 5 5 6 5 3 4 1 2 2 1 1
8 8 7 8 8 8 9 7 5 6 5 5 4 5 4 4 4 4 4 5 6 7 6 5 5 4 6 5 4 4 5 3 3 5 4 4 6 8 7 6 7 6 6 7 7 6 5 5 4 4 3 3 3 2 3 5 5 5 5 5 4 1 1 3 3 2 1 1 0 2 3 3 4 2 4 2 1 2 4 5 2 2 1 1 1
10 8 7 9 8 7 7 7 7 6 6 5 4 5 5 3 4 4 4 5 4 4 4 4 4 4 3 3 3 3 3 4 3 4 4 5 5 8 7 7 6 6 6 7 6 6 4 4 4 3 2 1 1 2 3 3 4 6 5 4 3 1 0 2 3 3 3 2 2 4 3 4 2 1 1 2 3 2 1 1 3 2 2 2 4
10 9 9 8 8 8 9 8 8 8 7 6 5 5 4 4 4 4 4 4 4 3 3 3 3 3 4 3 3 3 2 2 5 6 6 3 4 6 7 7 6 6 6 5 5 4 4 3 2 2 2 2 2 3 4 4 3 3 4 3 1 0 1 3 4 3 3 3 3 4 4 5 6 4 3 4 1 2 3 2 2 1 3 3 4
9 8 7 9 9 9 9 8 8 8 7 6 6 6 6 5 4 4 5 4 4 4 4 4 3 3 3 4 3 2 3 2 3 3 4 4 3 3 3 3 3 3 5 3 3 2 1 1 0 1 0 1 1 4 3 5 4 3 3 2 1 1 1 3 3 3 3 3 4 5 4 5 7 6 6 4 4 6 4 3 4 4 3 3 5
6 8 10 9 9 9 9 8 8 8 8 7 8 7 7 6 6 5 5 5 5 5 5 5 4 4 3 4 3 3 4 3 3 3 3 3 4 4 3 3 2 3 2 3 2 2 2 1 1 2 2 2 3 3 3 4 3 1 1 2 2 1 1 2 3 3 4 4 4 7 6 6 6 6 7 5 8 6 4 6 5 5 5 6 3
8 8 8 9 9 8 9 8 9 9 9 7 7 6 6 6 6 6 6 5 5 5 5 5 5 4 4 4 5 4 5 5 4 4 4 4 5 3 4 4 4 4 3 4 3 2 2 2 2 3 2 2 3 3 3 3 2 2 1 2 2 3 1 2 3 4 4 4 5 8 8 7 8 9 8 9 7 4 7 7 7 8 7 8 6
6 7 7 8 9 10 10 8 9 9 8 7 7 7 6 6 6 6 6 7 6 6 6 6 5 5 4 5 5 6 6 5 5 5 5 3 4 4 3 4 3 4 3 4 4 3 3 3 2 3 3 3 3 3 2 3 4 2 2 3 3 3 4 1 1 3 4 4 5 7 9 9 8 8 10 9 10 9 10 9 8 9 10 9 9
8 7 7 8 9 10 9 10 9 10 8 8 7 7 7 6 6 6 7 6 6 6 7 6 5 5 5 5 5 6 5 6 5 6 5 5 4 4 4 5 5 5 3 5 3 4 4 3 4 4 3 3 3 3 3 4 3 2 2 4 4 4 4 4 2 2 3 5 6 6 9 10 9 10 11 12 12 13 12 10 11 12 11 11 10
8 8 7 7 8 8 10 10 10 10 9 8 7 7 7 7 7 7 7 6 6 7 5 5 6 5 5 4 6 7 7 6 6 5 6 6 5 4 4 5 5 5 5 5 5 4 5 3 3 4 3 4 3 4 3 4 4 4 3 5 4 4 5 4 4 3 4 4 5 6 9 11 11 10 12 13 14 14 14 12 14 14 15 15 14
7 7 7 7 7 8 9 10 10 9 8 9 7 7 7 7 7 7 6 7 7 6 6 6 6 6 6 6 5 6 6 6 6 5 5 6 5 5 6 5 5 5 5 6 4 5 5 5 5 5 4 4 5 4 3 5 5 5 4 4 5 4 5 5 5 4 3 4 5 5 7 11 12 12 12 13 15 15 15 15 15 15 16 16 16
9 9 8 7 7 9 10 10 10 10 9 9 8 7 8 8 8 7 7 7 6 6 6 6 6 6 5 5 5 5 5 5 5 5 5 5 5 6 6 5 6 5 5 6 5 5 5 5 4 4 3 3 4 4 2 3 5 5 4 5 5 5 6 6 5 5 5 4 5 5 6 7 10 13 13 13 15 17 17 16 17 17 17 18 18
8 10 10 8 10 10 10 10 10 10 10 10 9 8 7 7 7 8 7 7 7 6 6 6 6 6 6 6 5 5 4 5 5 6 6 5 4 5 5 5 6 6 5 5 4 4 3 3 4 1 2 2 3 5 1 1 4 5 3 5 5 6 5 5 6 6 6 6 6 6 5 6 6 10 13 14 13 15 17 18 18 18 18 19 20
10 9 10 12 10 8 8 8 9 11 12 9 9 8 8 7 6 7 7 7 6 7 7 6 6 6 6 6 6 6 5 5 4 4 4 5 4 4 4 5 5 4 4 3 4 4 4 3 5 1 4 2 4 4 3 4 5 3 5 5 5 6 5 6 6 7 6 6 6 6 6 6 6 6 7 12 15 15 15 18 19 19 19 19 20
8 9 13 13 11 10 9 8 10 11 11 10 10 9 7 7 7 6 7 7 6 6 6 5 5 6 6 6 6 6 6 5 4 5 3 3 3 3 3 5 5 3 4 4 5 4 3 5 3 3 3 3 3 4 3 5 5 6 6 5 6 6 5 6 6 6 7 7 6 7 7 6 6 6 6 6 9 14 15 16 18 20 21 21 21
12 12 11 10 11 10 9 9 9 10 10 10 9 9 8 7 6 6 6 6 6 6 6 6 6 5 6 6 6 6 6 5 5 4 5 4 4 3 5 3 3 3 4 4 3 5 5 4 3 3 4 5 4 5 3 5 5 6 6 6 6 6 6 6 7 7 7 6 7 7 7 6 6 6 6 6 7 8 14 15 16 17 18 21 23
11 11 11 10 11 11 11 11 11 11 10 9 9 7 7 7 7 7 7 6 6 6 6 5 6 6 5 5 5 5 5 5 5 5 5 4 3 3 3 3 3 4 4 4 4 4 5 5 5 4 4 5 5 5 6 6 6 6 6 6 7 6 6 7 7 7 6 6 7 7 6 7 7 7 6 7 7 7 10 14 15 17 18 19 22
10 12 12 13 12 10 10 11 10 11 10 10 9 8 8 7 6 6 6 7 6 6 6 5 6 6 6 6 5 6 5 4 4 3 4 5 4 4 3 4 4 4 4 3 4 3 2 3 4 4 5 5 5 6 7 7 5 6 6 7 7 6 6 7 7 6 6 7 7 8 8 7 6 6 6 7 7 7 7 9 14 16 17 16 18
9 11 11 11 10 10 9 10 10 10 9 9 8 7 6 6 6 6 6 6 6 6 6 6 6 6 6 6 6 6 7 7 6 6 5 5 5 5 4 3 3 3 3 3 3 3 2 3 4 5 4 5 6 6 7 6 5 5 6 8 7 7 6 6 6 6 6 7 8 8 5 7 6 6 7 7 7 6 7 7 7 7 9 14 15
9 9 11 11 11 10 9 9 9 10 8 8 7 7 6 7 7 5 6 7 6 7 6 7 6 6 6 5 5 6 5 6 6 6 5 5 5 5 5 4 3 3 3 4 4 4 5 5 6 6 6 5 5 5 3 4 4 5 7 8 6 7 7 7 5 6 7 7 8 6 7 7 6 7 7 7 6 6 7 8 8 8 8 11 14
9 9 10 11 12 13 11 12 10 9 9 9 8 9 9 7 6 9 9 7 7 7 7 6 6 6 6 6 6 5 4 4 5 4 6 5 5 5 7 5 4 4 4 6 6 6 6 6 5 5 7 7 4 3 4 3 4 6 6 7 7 6 8 7 8 8 8 8 6 7 8 7 7 7 8 6 6 7 7 8 8 8 8 8 10
10 10 12 12 11 10 13 13 10 10 11 11 10 9 9 10 9 9 8 7 7 7 8 7 7 6 6 6 5 5 5 5 5 4 5 5 5 5 5 7 5 5 6 5 4 5 5 5 4 3 4 5 3 4 4 2 2 4 7 7 6 6 8 7 8 8 7 6 7 7 8 7 9 7 7 6 6 7 8 8 8 8 8 8 9
12 13 12 10 10 11 12 11 11 11 11 11 10 11 8 7 9 6 8 5 4 5 5 5 5 6 7 6 6 5 6 5 5 6 5 5 6 7 7 4 4 5 5 6 5 5 4 4 5 6 5 3 5 2 3 5 5 1 2 4 6 6 3 3 3 6 6 8 7 7 8 6 9 7 5 5 6 7 7 7 8 8 8 8 8
10 9 9 12 10 10 10 10 11 11 10 11 11 10 9 6 5 4 4 6 5 5 4 4 5 5 6 6 6 5 6 6 6 6 6 7 7 7 6 5 7 5 5 5 4 4 4 6 5 6 5 4 2 4 3 5 5 2 5 3 3 1 9 2 3 6 6 7 6 7 4 6 7 6 4 6 8 7 7 7 8 8 8 8 8
11 11 12 12 10 13 12 12 11 12 10 10 11 7 6 4 4 1 1 2 1 2 4 5 5 5 5 5 6 5 6 6 6 7 6 7 6 5 4 5 4 5 5 5 6 8 7 6 5 4 5 5 5 3 2 5 6 5 5 3 4 1 5 5 5 8 4 2 4 6 6 6 7 7 6 7 7 7 8 8 8 8 9 9 8
11 11 11 12 11 11 11 10 9 9 10 10 10 9 9 9 7 7 7 6 8 7 10 10 6 6 7 3 3 5 6 6 5 5 5 4 4 5 4 4 4 4 4 6 5 4 5 2 3 5 5 5 5 5 3 3 3 4 6 6 6 6 8 4 5 6 0 2 8 6 6 6 6 7 6 7 8 8 7 9 8 9 9 9 9
12 9 8 9 9 8 8 9 9 8 9 8 9 9 8 9 12 12 10 9 9 6 1 2 5 4 3 4 5 4 5 6 5 5 5 6 5 4 4 4 3 3 4 5 5 4 3 3 2 4 5 3 2 4 6 4 1 3 5 7 5 7 6 5 6 7 12 1 2 4 6 7 7 6 7 8 9 8 7 8 10 9 9 9 9
10 6 7 6 8 9 9 9 8 8 7 7 9 10 11 10 10 10 9 8 8 6 4 3 2 4 4 3 3 3 2 1 3 1 1 2 3 2 1 1 1 2 2 1 2 1 2 2 1 1 2 2 3 4 4 3 3 3 1 5 6 5 4 4 6 7 9 12 9 5 7 10 6 7 7 8 8 9 9 8 9 9 8 9 8
4 7 8 8 7 6 6 6 8 7 7 8 10 10 10 10 10 8 7 5 4 4 3 2 4 4 4 3 4 4 5 4 4 5 5 4 3 3 3 3 5 4 2 3 2 3 4 3 3 3 2 2 2 3 3 5 4 6 3 2 2 4 4 3 4 3 5 9 16 9 9 4 5 6 7 7 8 8 8 9 9 8 8 8 7
5 4 4 4 5 5 6 8 9 8 8 9 10 10 9 8 8 7 8 5 4 3 3 4 4 4 5 4 4 4 5 5 4 5 5 4 5 5 4 4 3 3 3 4 6 6 3 3 4 5 4 3 3 2 2 4 3 3 2 3 3 3 2 2 2 4 4 6 12 13 10 13 14 8 7 8 5 7 7 9 9 8 8 8 7
4 4 5 5 6 7 7 9 9 7 8 9 10 11 8 8 8 8 8 7 6 7 5 4 4 4 6 4 5 4 4 4 3 4 3 3 3 3 4 3 3 4 5 5 3 3 4 5 5 3 3 3 3 5 3 2 2 3 4 3 4 4 4 4 7 5 4 5 8 12 12 12 12 16 8 5 9 9 8 9 9 10 8 8 7
Wind_Direction
178 160 187 136 134 124 120 114 112 111 108 100 98 100 102 103 103 102 102 102 98 93 93 92 90 91 88 80 76 75 75 76 75 73 72 71 74 72 71 73 75 77 69 70 69 70 70 72 72 71 71 73 74 74 74 73 72 72 72 73 73 74 72 69 65 63 62 63 68 76 80 80 80 82 80 78 75 70 68 68 65 58 54 62 63
166 177 147 135 135 128 126 121 114 107 107 104 102 106 110 110 108 107 103 98 100 101 96 94 93 87 85 82 80 80 80 81 82 82 78 78 77 75 73 71 73 77 74 73 70 68 67 68 72 73 73 73 73 73 73 73 74 74 72 73 76 75 72 70 66 64 64 67 68 71 75 78 78 81 81 80 77 73 69 69 67 62 58 64 61
140 148 145 132 131 128 126 124 119 121 102 95 104 108 108 107 110 108 106 106 103 97 97 96 93 89 85 85 87 86 85 85 82 80 81 82 77 77 75 75 75 76 78 74 71 71 71 70 73 77 76 73 70 70 68 69 74 77 81 80 78 77 75 72 70 67 65 64 65 64 65 74 78 77 78 77 75 70 67 68 68 68 69 69 66
137 137 120 117 119 120 120 118 120 110 95 99 108 110 109 110 109 107 107 108 103 103 99 96 94 91 88 88 87 87 87 87 84 84 83 81 86 81 79 78 79 80 80 80 77 76 75 75 77 78 77 72 66 62 62 69 80 83 85 84 79 79 77 75 74 69 64 63 64 64 34 32 62 73 76 76 75 70 64 64 67 69 68 65 64
128 126 118 119 123 117 118 120 130 120 106 105 105 107 108 106 107 109 109 109 106 101 97 97 94 94 94 94 93 92 89 81 83 87 89 92 85 82 81 80 79 79 79 82 83 81 81 81 82 82 80 69 61 59 59 69 81 87 86 87 86 83 81 78 77 73 67 63 66 57 48 37 54 76 78 79 80 80 74 68 67 69 69 67 66
128 123 119 120 124 122 118 118 124 115 105 101 103 105 108 107 107 111 110 106 104 102 100 96 96 100 100 101 97 94 94 91 91 93 92 85 84 82 83 85 83 82 81 79 81 84 85 86 87 89 84 69 60 58 65 76 84 88 89 88 88 88 86 83 79 76 74 70 64 46 44 41 39 67 84 82 80 78 75 69 68 73 71 67 65
122 120 120 126 123 122 121 119 122 115 110 106 105 105 103 105 106 106 107 102 99 101 100 99 97 96 102 105 103 103 98 98 96 89 84 87 87 87 85 83 86 87 88 90 87 84 84 87 92 94 86 70 62 62 64 74 84 87 90 89 89 88 86 85 81 77 70 59 51 51 43 42 40 52 75 74 69 69 76 74 72 72 70 69 67
114 121 128 132 127 123 117 114 122 113 106 103 104 105 106 108 111 108 102 103 103 103 102 101 102 110 112 104 99 95 98 94 92 92 88 83 89 90 89 90 88 87 85 85 86 87 89 91 95 97 82 72 65 66 68 75 86 90 89 90 89 87 86 84 80 75 69 63 55 52 47 42 43 39 69 68 67 67 72 78 75 72 72 66 48
126 129 131 129 121 117 119 122 125 121 112 113 109 111 110 112 110 106 105 105 106 107 107 106 113 116 106 104 101 102 97 95 93 92 92 92 85 88 88 86 91 93 94 93 91 90 90 92 97 99 78 72 67 66 69 77 84 88 90 89 86 83 80 75 69 73 69 65 60 56 48 43 48 52 69 70 71 71 68 48 39 68 72 67 63
128 122 127 118 122 123 122 122 125 119 115 115 113 113 114 118 116 108 108 109 110 109 109 111 111 110 108 109 113 108 103 99 100 98 96 93 94 92 94 96 92 93 92 89 89 89 90 92 99 101 80 72 67 65 68 74 81 86 88 88 88 85 81 76 70 66 64 63 61 61 72 63 47 68 74 72 73 73 61 57 75 73 71 71 70
127 129 123 122 132 130 123 114 100 106 108 106 112 114 118 119 118 111 111 112 112 111 111 115 118 112 110 112 109 106 104 102 101 101 97 96 99 100 93 90 93 94 95 95 91 91 92 94 104 102 81 71 66 67 69 72 77 81 84 86 88 88 85 79 66 67 63 63 63 52 50 56 65 72 82 82 81 79 67 67 64 69 75 74 70
128 125 124 127 136 129 120 109 113 111 104 113 115 116 123 125 120 115 114 113 112 113 114 116 116 113 113 110 106 107 107 106 108 103 101 101 100 96 97 101 98 94 92 92 94 93 91 94 102 101 78 68 65 65 69 70 73 77 81 85 86 84 81 76 74 69 65 57 52 44 40 37 41 69 73 78 81 83 81 77 80 75 67 64 61
129 126 126 118 119 120 115 112 108 105 104 113 116 113 120 121 117 114 112 112 113 113 115 118 120 122 117 112 108 111 112 111 107 104 102 103 103 103 102 99 97 95 94 93 92 92 93 95 100 92 74 66 65 64 65 65 66 72 81 85 83 83 78 78 76 73 66 63 55 49 48 41 41 67 67 71 72 68 66 66 67 62 59 63 73
129 132 127 123 127 126 113 108 108 103 91 105 120 118 121 122 117 111 110 108 111 113 117 120 119 112 110 112 116 119 116 113 108 106 105 105 105 100 96 96 95 96 95 92 91 91 94 99 95 83 70 64 63 62 61 61 63 64 63 70 78 85 85 78 73 70 66 60 58 59 55 59 77 79 80 79 83 85 88 80 67 66 72 81 71
133 136 129 123 121 121 117 113 108 99 95 98 115 120 123 123 120 115 111 109 112 118 119 123 111 105 116 120 115 100 88 96 112 109 108 107 106 105 103 101 100 98 97 92 89 89 90 93 91 86 70 65 62 61 59 58 58 59 59 57 56 68 80 78 68 66 65 55 45 44 32 45 82 76 72 74 75 77 71 73 75 76 80 72 62
131 130 123 118 117 118 113 114 109 107 105 93 90 91 110 113 120 119 114 113 114 120 123 123 109 103 108 110 104 94 92 87 89 105 105 107 105 103 103 99 97 99 98 99 97 95 95 95 94 89 75 71 66 60 57 55 51 50 53 54 49 67 80 92 87 77 77 69 41 37 23 2 80 75 74 79 78 74 70 64 65 64 71 79 72
127 127 127 127 123 117 115 114 113 109 104 100 97 86 91 107 106 111 113 116 119 120 126 121 103 99 99 100 94 89 90 90 90 97 105 109 108 102 99 101 103 102 104 105 102 98 97 94 91 82 71 69 64 56 51 49 44 41 44 50 51 68 89 98 94 95 84 73 59 45 35 54 83 93 112 96 70 63 67 86 105 92 73 72 61
137 138 138 138 129 124 118 120 115 103 100 100 103 99 90 104 107 104 106 115 119 113 108 103 97 86 87 91 90 88 89 88 85 87 94 97 94 92 95 99 98 100 102 103 103 101 98 94 86 77 71 65 57 49 41 38 36 32 32 45 49 80 90 96 95 87 83 68 38 0 352 346 65 49 55 63 72 76 91 96 59 63 62 79 90
144 146 144 145 146 132 135 131 120 125 125 116 113 111 109 110 114 113 109 107 108 110 109 107 106 96 93 92 89 89 88 90 95 97 95 95 93 88 92 104 110 109 108 108 107 103 97 93 90 82 76 69 63 52 40 29 21 25 25 41 51 92 103 106 112 103 100 89 39 5 328 327 63 100 63 59 70 83 59 58 87 100 94 100 105
151 152 153 157 152 150 143 142 138 137 140 130 121 121 122 120 121 120 117 118 118 117 116 114 111 108 108 104 100 92 87 87 91 95 104 105 104 105 102 102 114 117 116 115 112 109 107 104 101 96 94 96 82 65 36 24 21 21 21 39 50 91 105 116 130 134 129 142 58 329 299 315 116 77 132 119 80 71 61 59 48 49 76 118 290
158 163 161 163 160 161 161 156 157 152 144 136 128 123 120 122 122 124 126 127 126 124 121 119 118 119 115 115 104 100 101 94 89 97 100 109 117 113 113 116 118 115 115 116 116 114 114 114 120 121 124 83 37 18 5 4 11 20 19 39 55 69 119 128 132 142 159 171 99 298 318 338 332 190 95 77 65 81 143 150 104 117 117 23 329
168 169 176 168 165 168 170 168 162 161 153 148 137 133 140 136 135 133 128 129 126 126 130 138 135 137 132 118 114 120 113 109 110 111 112 118 120 121 115 114 111 110 119 124 127 125 129 131 133 141 119 68 35 21 356 346 344 14 5 21 58 45 171 152 145 157 176 228 265 267 280 314 259 168 82 54 81 78 13 7 134 216 105 284 225
168 172 178 179 174 169 171 173 172 167 161 155 151 150 152 151 151 145 143 144 147 144 152 150 153 152 141 121 122 121 132 133 137 138 135 136 137 133 130 126 125 127 130 131 133 138 147 142 138 144 150 77 11 354 355 346 345 355 357 356 55 47 220 171 172 178 190 219 245 265 288 277 154 175 242 243 158 197 187 349 45 314 247 231 288
174 176 175 180 177 174 178 179 175 172 165 164 156 157 160 165 161 159 154 157 158 163 166 170 169 164 154 153 145 145 136 147 143 137 128 125 135 138 137 133 134 132 128 122 135 153 152 137 141 130 63 10 347 331 336 322 324 324 323 322 22 175 187 212 189 191 205 228 225 256 297 303 288 262 196 264 308 215 208 220 289 260 255 248 281
174 168 172 180 183 182 176 181 178 174 172 168 164 171 169 165 172 169 166 167 169 174 179 180 184 181 170 165 164 153 149 161 141 136 134 136 130 126 124 126 126 130 127 143 151 163 112 131 34 26 61 241 303 295 308 301 299 307 304 307 335 62 182 230 210 211 215 215 227 227 251 284 283 271 289 263 253 205 211 237 265 286 278 271 242
152 169 181 180 185 185 182 177 175 180 179 172 177 173 167 172 176 179 172 180 176 179 181 185 192 194 187 172 151 145 153 164 165 155 152 153 151 163 170 154 149 173 161 164 183 193 231 182 191 234 233 194 236 267 268 249 265 288 331 325 317 175 213 223 223 228 230 223 226 231 226 249 258 252 262 248 260 193 204 252 269 265 261 261 261
176 181 177 180 183 184 187 175 177 180 184 178 173 170 180 180 178 176 173 187 186 181 188 190 197 194 189 166 151 161 163 172 180 173 170 169 173 186 185 179 186 191 196 171 198 215 242 241 222 237 234 194 250 269 269 251 222 218 244 261 263 276 163 208 234 227 247 246 239 231 229 235 242 244 254 271 281 200 229 250 260 268 265 255 272
175 179 176 178 183 186 185 179 175 177 185 181 174 179 179 179 183 177 188 184 179 191 194 196 193 193 189 179 165 163 169 175 190 180 184 179 193 195 195 191 207 212 199 199 190 214 233 256 253 258 270 254 251 250 237 241 240 237 265 276 288 286 284 193 210 227 235 245 253 247 238 235 241 245 251 253 265 252 244 249 255 263 266 262 247
191 192 181 178 186 184 180 182 174 177 181 179 180 182 178 181 179 185 194 183 187 194 193 196 198 191 195 177 158 163 178 182 181 194 170 193 202 192 197 212 204 217 189 223 210 204 221 230 241 237 233 260 267 275 256 271 283 283 261 282 280 288 289 282 205 240 242 233 241 252 249 242 236 238 240 244 253 260 263 251 246 249 259 261 253
202 196 184 187 184 180 181 184 175 178 178 176 184 179 181 183 187 190 196 181 196 196 189 190 204 186 195 194 177 169 179 182 191 184 176 201 204 202 200 220 209 214 190 214 224 209 214 214 240 247 241 246 248 251 261 279 290 289 280 268 277 265 269 271 268 226 234 237 237 244 252 250 247 240 238 240 245 254 265 262 252 252 252 252 253
197 202 200 193 182 178 186 184 179 176 173 181 182 184 181 189 190 191 189 193 197 190 189 196 198 195 196 190 191 179 178 183 187 183 194 197 200 203 213 211 220 220 203 217 208 211 210 203 206 215 221 231 238 244 244 263 273 286 275 266 264 278 270 265 270 267 248 240 239 242 248 248 248 249 244 241 242 248 253 264 265 259 258 259 257
198 204 201 191 184 189 185 185 180 177 177 182 183 185 184 190 191 187 192 198 193 186 191 190 195 198 200 190 188 193 177 184 185 192 192 198 201 202 210 203 222 216 202 210 202 209 205 212 219 220 222 218 247 262 256 254 273 269 284 269 266 268 267 266 261 259 263 256 240 245 246 249 250 249 251 249 246 245 248 252 256 261 263 261 261
204 198 198 193 193 192 188 187 181 179 181 183 184 190 185 182 182 189 188 189 192 192 188 186 191 193 192 193 194 193 191 177 187 186 195 200 206 206 204 210 216 207 201 209 206 206 216 239 260 267 276 273 284 275 301 266 268 275 277 270 277 267 259 264 263 264 257 258 250 238 243 245 249 254 252 251 253 252 250 250 252 257 262 266 266
195 200 196 199 196 194 190 185 186 182 186 183 181 183 188 186 182 182 181 178 185 185 193 183 177 183 185 193 194 197 196 197 177 185 178 190 205 214 212 216 219 214 205 197 210 205 214 217 244 254 259 250 254 269 307 290 276 277 266 260 261 258 260 260 254 250 253 253 251 250 244 240 244 247 251 252 249 251 254 253 253 253 256 260 264
192 198 199 199 194 193 189 190 189 188 186 185 183 186 186 183 184 184 185 183 186 189 194 193 182 176 178 191 193 196 201 195 188 172 172 161 177 213 229 227 216 204 200 209 204 208 203 220 212 223 259 269 267 279 270 262 269 277 272 269 265 267 266 259 264 260 251 249 251 252 250 242 240 240 248 250 256 252 251 255 255 255 256 258 260
197 197 198 196 198 194 190 192 190 192 192 189 188 186 185 186 182 185 185 188 187 194 198 200 196 198 181 178 186 188 194 198 183 165 153 160 161 181 217 240 246 211 214 210 196 208 213 226 222 206 242 260 267 275 252 262 266 270 273 274 270 269 265 266 264 263 257 259 256 257 254 250 246 241 238 245 251 253 251 251 252 254 258 259 260
198 195 192 193 198 196 189 189 189 193 193 193 190 187 183 185 184 184 187 184 192 199 205 202 199 199 210 194 177 179 187 189 188 180 156 163 164 181 214 217 209 211 217 213 203 210 197 210 221 208 212 250 253 266 281 262 269 267 275 277 271 268 264 257 258 256 267 257 256 254 256 251 248 250 248 248 248 249 256 254 257 258 258 259 261
197 196 193 188 193 192 193 192 190 192 190 190 191 188 188 182 183 183 181 188 196 197 201 203 209 205 199 210 201 179 181 188 192 206 205 197 200 203 218 205 190 194 210 206 223 226 251 231 237 214 206 218 244 248 261 258 251 268 274 271 269 262 257 259 255 262 259 261 255 249 245 247 248 248 251 252 253 257 260 261 260 261 261 261 261
193 196 193 192 187 190 190 193 186 188 188 185 185 184 179 183 183 180 187 195 195 199 197 204 210 208 207 205 201 204 201 202 208 209 209 212 214 229 243 240 221 210 202 208 225 230 230 230 235 254 232 223 226 234 242 255 261 258 263 265 265 264 268 262 259 255 250 247 253 257 267 256 249 249 252 253 256 264 264 261 262 260 259 257 260
193 190 194 191 191 190 191 191 190 184 179 177 171 176 176 179 185 197 203 203 200 198 206 207 200 208 210 205 209 212 210 211 209 208 209 208 210 212 236 234 227 217 231 240 244 222 223 224 236 235 253 261 248 256 269 270 269 272 272 274 263 267 266 259 257 249 252 252 250 255 254 255 247 252 249 250 255 256 255 258 257 258 261 263 259
197 187 191 196 192 189 184 195 190 178 177 177 181 177 182 187 194 197 204 201 207 206 208 208 205 206 203 206 206 207 208 210 214 202 208 210 211 214 221 232 221 210 223 235 229 223 217 215 227 215 236 253 267 221 246 218 277 291 272 272 284 259 256 259 255 254 252 256 256 256 257 262 258 256 254 255 253 254 254 257 258 258 260 261 266
207 193 194 196 193 188 191 194 184 187 188 185 182 186 190 191 189 201 199 196 200 205 214 209 207 201 202 206 208 203 202 204 205 205 210 204 212 222 223 228 219 228 234 248 246 232 229 227 227 260 216 226 252 216 220 139 273 256 301 310 297 276 256 251 259 260 264 269 264 263 264 258 263 258 265 265 264 260 260 258 259 259 258 257 257
198 199 198 187 191 192 198 192 190 189 194 189 182 194 194 193 190 195 194 205 222 216 216 210 203 201 203 205 204 202 202 207 205 204 208 214 218 221 225 219 219 221 229 241 234 234 213 222 213 220 252 219 231 236 198 183 256 236 244 316 298 330 336 310 297 282 268 263 258 258 261 270 265 266 276 284 266 264 258 257 259 259 259 258 258
199 201 199 195 193 196 196 193 193 194 192 193 194 196 191 185 191 168 188 183 197 205 209 215 211 214 217 207 207 200 201 206 206 206 209 214 216 218 216 212 225 214 217 234 217 212 212 223 214 217 215 253 223 257 214 198 209 243 303 209 269 5 312 291 296 275 227 248 254 260 264 261 267 270 264 259 262 261 262 260 260 258 259 257 255
201 200 197 196 196 197 195 192 192 195 196 191 192 178 153 155 157 115 121 202 344 176 196 230 211 210 216 203 214 199 202 207 207 207 208 218 221 222 216 222 214 216 214 222 219 222 222 220 201 201 196 213 252 244 272 207 215 205 225 309 316 325 230 280 319 289 258 281 269 255 259 255 263 264 249 255 258 255 259 263 259 257 258 256 255
205 204 199 199 198 198 194 193 193 194 195 193 184 169 178 174 169 178 193 197 211 198 208 211 200 207 214 191 193 197 201 209 209 209 210 218 223 216 212 207 217 220 212 228 233 231 252 244 216 210 214 217 231 263 278 256 239 216 221 220 224 270 304 295 340 304 306 208 263 254 264 253 239 253 243 253 256 255 245 256 254 258 256 254 252
212 201 197 200 202 199 196 193 193 195 193 185 178 174 179 186 189 196 199 200 207 224 200 170 192 209 158 174 187 187 191 188 194 194 198 204 213 213 208 213 228 237 239 233 235 244 253 236 216 205 226 220 179 246 250 271 60 253 228 240 257 253 253 296 281 302 305 279 257 298 268 253 255 251 256 251 257 260 258 253 259 257 258 253 252
206 187 197 198 197 198 192 195 194 190 189 177 178 184 187 192 194 200 198 199 204 201 187 191 165 151 148 144 111 87 76 109 150 128 170 172 184 195 194 222 285 302 310 333 359 0 53 38 28 291 307 261 237 241 275 316 264 289 195 238 253 292 308 291 279 285 294 301 289 253 251 274 265 257 258 261 259 254 258 255 258 259 256 255 253
174 189 197 198 196 192 190 187 194 190 190 179 182 192 193 190 193 191 196 201 172 169 154 112 133 138 113 74 89 89 80 75 91 100 94 99 101 94 80 80 87 72 60 77 80 55 42 6 343 330 301 276 232 245 260 264 254 270 321 309 316 266 283 251 273 244 265 299 296 301 306 272 266 271 262 240 260 261 259 264 263 264 267 263 252
212 206 205 189 193 185 188 188 198 193 189 185 186 191 192 181 185 184 182 163 135 101 113 121 121 122 111 105 108 94 96 80 71 83 85 83 92 94 99 96 99 115 101 71 58 58 54 70 60 49 25 13 352 348 326 307 308 306 311 302 313 322 308 330 260 280 266 238 279 305 308 314 313 295 294 288 243 257 267 269 274 266 260 263 259
221 205 204 199 195 193 191 195 200 192 190 191 185 191 189 184 183 176 170 160 156 147 128 113 116 108 118 116 111 116 86 100 91 74 71 72 90 95 96 86 80 80 79 81 78 72 46 42 47 60 58 48 23 28 3 321 322 335 326 316 310 308 305 304 309 306 288 304 307 303 310 307 300 307 298 269 288 280 266 273 280 280 272 267 257